| time (UTC) | temp F | wind direction | speed knots | gust knots | rain 1hr in | rain 24hr in | rain mn in | humidity % | barometer mb |
| 20260504173438 | 73 | 161 | 0.0 | 0.0 | 0.00 | 0.00 | 0.00 | 47 | 1010.9 |
| 20260504172936 | 72 | 260 | 3.5 | 5.2 | 0.00 | 0.00 | 0.00 | 48 | 1010.8 |
| 20260504172431 | 73 | 186 | 0.0 | 0.0 | 0.00 | 0.00 | 0.00 | 45 | 1010.9 |
| 20260504171928 | 73 | 199 | 0.0 | 0.0 | 0.00 | 0.00 | 0.00 | 45 | 1010.9 |
| 20260504171425 | 71 | 216 | 0.0 | 0.9 | 0.00 | 0.00 | 0.00 | 48 | 1011.0 |
| 20260504170922 | 72 | 281 | 2.6 | 2.6 | 0.00 | 0.00 | 0.00 | 47 | 1011.0 |
| 20260504170418 | 72 | 253 | 2.6 | 2.6 | 0.00 | 0.00 | 0.00 | 48 | 1011.2 |
| 20260504160337 | 68 | 154 | 0.0 | 0.0 | 0.00 | 0.00 | 0.00 | 53 | 1011.3 |
| 20260504150802 | 65 | 127 | 0.0 | 0.0 | 0.00 | 0.00 | 0.00 | 59 | 1011.2 |
| 20260504150259 | 64 | 133 | 0.0 | 0.0 | 0.00 | 0.00 | 0.00 | 61 | 1011.0 |
| 20260504141229 | 61 | 113 | 0.0 | 0.0 | 0.00 | 0.00 | 0.00 | 63 | 1010.7 |
| 20260504140725 | 61 | 99 | 0.0 | 0.0 | 0.00 | 0.00 | 0.00 | 62 | 1010.8 |
| 20260504140221 | 60 | 98 | 0.0 | 0.0 | 0.00 | 0.00 | 0.00 | 65 | 1010.9 |
| 20260504130649 | 56 | 203 | 0.0 | 0.0 | 0.00 | 0.00 | 0.00 | 75 | 1010.5 |
| 20260504130146 | 56 | 216 | 0.0 | 0.0 | 0.00 | 0.00 | 0.00 | 74 | 1010.3 |
| 20260504120110 | 60 | 202 | 0.0 | 0.0 | 0.00 | 0.00 | 0.00 | 60 | 1010.3 |
| 20260504110538 | 58 | 204 | 0.0 | 0.0 | 0.00 | 0.00 | 0.00 | 71 | 1010.4 |
| 20260504100454 | 60 | 254 | 1.7 | 1.7 | 0.00 | 0.00 | 0.00 | 66 | 1010.0 |
| 20260504081847 | 64 | 124 | 0.0 | 0.0 | 0.00 | 0.00 | 0.00 | 56 | 1010.1 |
| 20260504081343 | 64 | 121 | 0.0 | 0.0 | 0.00 | 0.00 | 0.00 | 55 | 1010.0 |
| 20260504080839 | 64 | 121 | 0.0 | 0.0 | 0.00 | 0.00 | 0.00 | 55 | 1009.9 |
| 20260504080337 | 65 | 121 | 0.0 | 0.0 | 0.00 | 0.00 | 0.00 | 54 | 1009.9 |
| 20260504070304 | 65 | 119 | 0.0 | 0.0 | 0.00 | 0.00 | 0.00 | 60 | 1009.8 |
| 20260504060224 | 66 | 121 | 1.7 | 1.7 | 0.00 | 0.00 | 0.00 | 57 | 1009.7 |
| 20260504050652 | 69 | 70 | 1.7 | 1.7 | 0.00 | 0.00 | 0.00 | 46 | 1009.7 |
| 20260504050149 | 69 | 49 | 0.0 | 1.7 | 0.00 | 0.00 | 0.00 | 46 | 1009.9 |
| 20260504045646 | 69 | 117 | 0.0 | 0.0 | 0.00 | 0.00 | 0.00 | 47 | 1009.9 |
| 20260504045146 | 69 | 122 | 0.0 | 0.0 | 0.00 | 0.00 | 0.00 | 47 | 1010.0 |
| 20260504044644 | 69 | 192 | 0.0 | 0.0 | 0.00 | 0.00 | 0.00 | 46 | 1009.8 |
| 20260504044141 | 69 | 200 | 0.0 | 0.0 | 0.00 | 0.00 | 0.00 | 47 | 1009.9 |
| 20260504043638 | 70 | 201 | 0.0 | 0.0 | 0.00 | 0.00 | 0.00 | 46 | 1009.8 |
| 20260504043135 | 70 | 202 | 0.0 | 0.0 | 0.00 | 0.00 | 0.00 | 46 | 1009.9 |
| 20260504042632 | 70 | 202 | 0.0 | 0.0 | 0.00 | 0.00 | 0.00 | 46 | 1009.6 |
| 20260504042129 | 70 | 201 | 0.0 | 0.0 | 0.00 | 0.00 | 0.00 | 44 | 1009.8 |
| 20260504041625 | 70 | 201 | 0.0 | 0.0 | 0.00 | 0.00 | 0.00 | 43 | 1009.9 |
| 20260504041121 | 71 | 208 | 0.0 | 0.0 | 0.00 | 0.00 | 0.00 | 44 | 1009.8 |
| 20260504040618 | 71 | 222 | 0.0 | 0.0 | 0.00 | 0.00 | 0.00 | 44 | 1009.8 |
| 20260504040115 | 72 | 223 | 0.0 | 0.0 | 0.00 | 0.00 | 0.00 | 43 | 1009.7 |
| 20260504035612 | 72 | 217 | 0.0 | 0.0 | 0.00 | 0.00 | 0.00 | 42 | 1009.6 |
| 20260504035108 | 72 | 216 | 0.0 | 0.0 | 0.00 | 0.00 | 0.00 | 42 | 1009.5 |
| 20260504034606 | 73 | 216 | 0.0 | 0.0 | 0.00 | 0.00 | 0.00 | 42 | 1009.6 |
| 20260504034103 | 73 | 217 | 0.0 | 0.0 | 0.00 | 0.00 | 0.00 | 41 | 1009.6 |
| 20260504033601 | 74 | 217 | 0.0 | 0.0 | 0.00 | 0.00 | 0.00 | 41 | 1009.5 |
| 20260504033058 | 74 | 231 | 0.0 | 0.0 | 0.00 | 0.00 | 0.00 | 40 | 1009.5 |
| 20260504032555 | 75 | 220 | 0.0 | 0.0 | 0.00 | 0.00 | 0.00 | 40 | 1009.5 |
| 20260504032052 | 75 | 236 | 1.7 | 1.7 | 0.00 | 0.00 | 0.00 | 39 | 1009.5 |
| 20260504031548 | 75 | 248 | 0.9 | 1.7 | 0.00 | 0.00 | 0.00 | 39 | 1009.4 |
| 20260504031045 | 76 | 261 | 1.7 | 1.7 | 0.00 | 0.00 | 0.00 | 39 | 1009.5 |
| 20260504030542 | 77 | 270 | 2.6 | 2.6 | 0.00 | 0.00 | 0.00 | 37 | 1009.4 |
| 20260504030038 | 77 | 259 | 2.6 | 2.6 | 0.00 | 0.00 | 0.00 | 35 | 1009.5 |
| 20260504025536 | 77 | 292 | 3.5 | 4.3 | 0.00 | 0.00 | 0.00 | 33 | 1009.6 |
| 20260504025032 | 78 | 222 | 0.0 | 0.0 | 0.00 | 0.00 | 0.00 | 33 | 1009.7 |
| 20260504024529 | 78 | 227 | 0.0 | 0.0 | 0.00 | 0.00 | 0.00 | 33 | 1009.6 |
| 20260504024026 | 78 | 220 | 0.0 | 0.0 | 0.00 | 0.00 | 0.00 | 31 | 1009.6 |
| 20260504023523 | 79 | 271 | 2.6 | 2.6 | 0.00 | 0.00 | 0.00 | 31 | 1009.6 |
| 20260504023018 | 79 | 260 | 4.3 | 5.2 | 0.00 | 0.00 | 0.00 | 31 | 1009.6 |
| 20260504022514 | 80 | 239 | 2.6 | 2.6 | 0.00 | 0.00 | 0.00 | 31 | 1009.8 |
| 20260504022011 | 80 | 264 | 5.2 | 6.1 | 0.00 | 0.00 | 0.00 | 29 | 1009.6 |
| 20260504021509 | 80 | 284 | 4.3 | 5.2 | 0.00 | 0.00 | 0.00 | 29 | 1009.7 |
| 20260504021006 | 81 | 271 | 4.3 | 4.3 | 0.00 | 0.00 | 0.00 | 28 | 1009.9 |
| 20260504020502 | 81 | 272 | 0.0 | 0.0 | 0.00 | 0.00 | 0.00 | 28 | 1009.7 |
| 20260504015959 | 81 | 255 | 2.6 | 2.6 | 0.00 | 0.00 | 0.00 | 28 | 1009.8 |
| 20260504015455 | 82 | 251 | 1.7 | 1.7 | 0.00 | 0.00 | 0.00 | 28 | 1009.8 |
| 20260504014951 | 82 | 230 | 2.6 | 4.3 | 0.00 | 0.00 | 0.00 | 27 | 1009.9 |
| 20260504014447 | 82 | 273 | 3.5 | 4.3 | 0.00 | 0.00 | 0.00 | 28 | 1009.8 |
| 20260504013944 | 82 | 262 | 4.3 | 5.2 | 0.00 | 0.00 | 0.00 | 26 | 1010.2 |
| 20260504013443 | 82 | 262 | 6.1 | 7.0 | 0.00 | 0.00 | 0.00 | 26 | 1009.9 |
| 20260504012938 | 82 | 281 | 2.6 | 4.3 | 0.00 | 0.00 | 0.00 | 29 | 1009.9 |
| 20260504012437 | 82 | 264 | 4.3 | 5.2 | 0.00 | 0.00 | 0.00 | 28 | 1010.0 |
| 20260504011934 | 82 | 273 | 6.1 | 7.0 | 0.00 | 0.00 | 0.00 | 29 | 1010.2 |
| 20260504011430 | 82 | 271 | 3.5 | 4.3 | 0.00 | 0.00 | 0.00 | 29 | 1010.2 |
| 20260504010926 | 82 | 283 | 5.2 | 6.1 | 0.00 | 0.00 | 0.00 | 29 | 1010.1 |
| 20260504010422 | 82 | 279 | 0.9 | 1.7 | 0.00 | 0.00 | 0.00 | 29 | 1010.2 |
| 20260504005919 | 82 | 266 | 5.2 | 5.2 | 0.00 | 0.00 | 0.00 | 30 | 1010.4 |
| 20260504005415 | 83 | 263 | 4.3 | 5.2 | 0.00 | 0.00 | 0.00 | 29 | 1010.5 |
| 20260504004913 | 83 | 296 | 3.5 | 4.3 | 0.00 | 0.00 | 0.00 | 29 | 1010.6 |
| 20260504004411 | 84 | 259 | 6.1 | 7.8 | 0.00 | 0.00 | 0.00 | 26 | 1010.6 |
| 20260504003908 | 84 | 283 | 1.7 | 2.6 | 0.00 | 0.00 | 0.00 | 28 | 1010.7 |
| 20260504003404 | 83 | 256 | 2.6 | 4.3 | 0.00 | 0.00 | 0.00 | 27 | 1010.8 |
| 20260504002901 | 82 | 310 | 3.5 | 5.2 | 0.00 | 0.00 | 0.00 | 27 | 1010.6 |
| 20260504002358 | 83 | 276 | 6.1 | 7.0 | 0.00 | 0.00 | 0.00 | 27 | 1010.8 |
| 20260504001855 | 83 | 260 | 6.1 | 11.3 | 0.00 | 0.00 | 0.00 | 26 | 1010.7 |
| 20260504001353 | 83 | 283 | 7.0 | 7.8 | 0.00 | 0.00 | 0.00 | 27 | 1010.7 |
| 20260504000849 | 83 | 275 | 5.2 | 6.1 | 0.00 | 0.00 | 0.00 | 28 | 1010.9 |
| 20260504000346 | 83 | 278 | 6.1 | 7.8 | 0.00 | 0.00 | 0.00 | 27 | 1010.9 |
| 20260503235844 | 82 | 260 | 4.3 | 7.0 | 0.00 | 0.00 | 0.00 | 27 | 1011.0 |
| 20260503235341 | 83 | 293 | 7.0 | 7.8 | 0.00 | 0.00 | 0.00 | 27 | 1011.0 |
| 20260503234838 | 83 | 273 | 6.1 | 7.0 | 0.00 | 0.00 | 0.00 | 28 | 1011.0 |
| 20260503234336 | 83 | 265 | 6.1 | 6.1 | 0.00 | 0.00 | 0.00 | 30 | 1011.0 |
| 20260503233834 | 83 | 252 | 4.3 | 5.2 | 0.00 | 0.00 | 0.00 | 31 | 1011.0 |
| 20260503233329 | 83 | 280 | 5.2 | 5.2 | 0.00 | 0.00 | 0.00 | 30 | 1011.0 |
| 20260503232826 | 83 | 267 | 2.6 | 2.6 | 0.00 | 0.00 | 0.00 | 31 | 1011.1 |
| 20260503232323 | 82 | 297 | 6.1 | 7.8 | 0.00 | 0.00 | 0.00 | 30 | 1011.4 |
| 20260503231821 | 82 | 261 | 7.8 | 9.6 | 0.00 | 0.00 | 0.00 | 31 | 1011.4 |
| 20260503231318 | 82 | 280 | 7.8 | 8.7 | 0.00 | 0.00 | 0.00 | 32 | 1011.5 |
| 20260503230814 | 82 | 271 | 4.3 | 6.1 | 0.00 | 0.00 | 0.00 | 35 | 1011.5 |
| 20260503230311 | 82 | 255 | 7.8 | 8.7 | 0.00 | 0.00 | 0.00 | 34 | 1011.5 |
| 20260503225809 | 82 | 274 | 7.0 | 8.7 | 0.00 | 0.00 | 0.00 | 32 | 1011.5 |
| 20260503225305 | 82 | 280 | 8.7 | 11.3 | 0.00 | 0.00 | 0.00 | 33 | 1011.9 |
| 20260503224801 | 81 | 244 | 7.0 | 7.8 | 0.00 | 0.00 | 0.00 | 33 | 1011.9 |
| 20260503224259 | 82 | 269 | 4.3 | 5.2 | 0.00 | 0.00 | 0.00 | 35 | 1011.9 |
| 20260503223756 | 82 | 210 | 1.7 | 1.7 | 0.00 | 0.00 | 0.00 | 36 | 1012.1 |
| 20260503223253 | 81 | 268 | 3.5 | 5.2 | 0.00 | 0.00 | 0.00 | 37 | 1012.0 |
| 20260503222749 | 81 | 273 | 4.3 | 6.1 | 0.00 | 0.00 | 0.00 | 37 | 1012.3 |
| 20260503222247 | 82 | 275 | 6.1 | 7.0 | 0.00 | 0.00 | 0.00 | 36 | 1012.2 |
| 20260503221746 | 81 | 236 | 1.7 | 2.6 | 0.00 | 0.00 | 0.00 | 37 | 1012.3 |
| 20260503221243 | 81 | 268 | 5.2 | 6.1 | 0.00 | 0.00 | 0.00 | 37 | 1012.3 |
| 20260503220739 | 81 | 266 | 6.1 | 7.0 | 0.00 | 0.00 | 0.00 | 37 | 1012.4 |
| 20260503220237 | 81 | 192 | 0.0 | 0.0 | 0.00 | 0.00 | 0.00 | 38 | 1012.4 |
| 20260503215733 | 80 | 228 | 2.6 | 4.3 | 0.00 | 0.00 | 0.00 | 40 | 1012.5 |
| 20260503215230 | 80 | 261 | 5.2 | 7.0 | 0.00 | 0.00 | 0.00 | 40 | 1012.5 |
| 20260503214728 | 81 | 215 | 0.9 | 1.7 | 0.00 | 0.00 | 0.00 | 39 | 1012.5 |
| 20260503214225 | 80 | 261 | 4.3 | 5.2 | 0.00 | 0.00 | 0.00 | 39 | 1012.8 |
| 20260503213723 | 80 | 280 | 7.8 | 7.8 | 0.00 | 0.00 | 0.00 | 39 | 1012.9 |
| 20260503213220 | 80 | 286 | 4.3 | 6.1 | 0.00 | 0.00 | 0.00 | 42 | 1012.9 |
| 20260503212717 | 80 | 269 | 2.6 | 4.3 | 0.00 | 0.00 | 0.00 | 42 | 1012.9 |
| 20260503212214 | 79 | 252 | 5.2 | 6.1 | 0.00 | 0.00 | 0.00 | 42 | 1013.2 |
| 20260503211712 | 78 | 263 | 4.3 | 5.2 | 0.00 | 0.00 | 0.00 | 43 | 1012.8 |
| 20260503211208 | 78 | 284 | 4.3 | 6.1 | 0.00 | 0.00 | 0.00 | 45 | 1013.0 |
| 20260503210704 | 78 | 297 | 7.8 | 8.7 | 0.00 | 0.00 | 0.00 | 44 | 1013.1 |
| 20260503210201 | 79 | 274 | 6.1 | 7.0 | 0.00 | 0.00 | 0.00 | 43 | 1013.1 |
| 20260503205656 | 79 | 275 | 3.5 | 5.2 | 0.00 | 0.00 | 0.00 | 44 | 1013.2 |
| 20260503205152 | 79 | 213 | 3.5 | 4.3 | 0.00 | 0.00 | 0.00 | 44 | 1013.2 |
| 20260503204649 | 78 | 285 | 6.1 | 7.0 | 0.00 | 0.00 | 0.00 | 44 | 1013.4 |
| 20260503204147 | 79 | 255 | 5.2 | 6.1 | 0.00 | 0.00 | 0.00 | 43 | 1013.4 |
| 20260503203644 | 78 | 151 | 2.6 | 5.2 | 0.00 | 0.00 | 0.00 | 45 | 1013.6 |
| 20260503203142 | 78 | 261 | 4.3 | 5.2 | 0.00 | 0.00 | 0.00 | 46 | 1013.7 |
| 20260503202638 | 78 | 284 | 4.3 | 5.2 | 0.00 | 0.00 | 0.00 | 46 | 1013.7 |
| 20260503202137 | 78 | 214 | 2.6 | 4.3 | 0.00 | 0.00 | 0.00 | 45 | 1013.7 |
| 20260503201634 | 78 | 261 | 4.3 | 5.2 | 0.00 | 0.00 | 0.00 | 45 | 1013.8 |
| 20260503201131 | 78 | 212 | 0.9 | 1.7 | 0.00 | 0.00 | 0.00 | 45 | 1013.9 |
| 20260503200627 | 78 | 192 | 1.7 | 2.6 | 0.00 | 0.00 | 0.00 | 43 | 1013.9 |
| 20260503200124 | 77 | 221 | 2.6 | 4.3 | 0.00 | 0.00 | 0.00 | 45 | 1013.9 |
| 20260503195621 | 77 | 224 | 1.7 | 2.6 | 0.00 | 0.00 | 0.00 | 44 | 1014.0 |
| 20260503195118 | 77 | 197 | 1.7 | 4.3 | 0.00 | 0.00 | 0.00 | 44 | 1014.2 |
| 20260503194615 | 76 | 277 | 5.2 | 7.0 | 0.00 | 0.00 | 0.00 | 44 | 1014.2 |
| 20260503194110 | 76 | 252 | 4.3 | 5.2 | 0.00 | 0.00 | 0.00 | 43 | 1014.3 |
| 20260503193607 | 76 | 223 | 2.6 | 2.6 | 0.00 | 0.00 | 0.00 | 42 | 1014.2 |
| 20260503193102 | 76 | 259 | 4.3 | 5.2 | 0.00 | 0.00 | 0.00 | 43 | 1014.4 |
| 20260503192558 | 76 | 222 | 0.9 | 1.7 | 0.00 | 0.00 | 0.00 | 43 | 1014.4 |
| 20260503192054 | 75 | 263 | 2.6 | 4.3 | 0.00 | 0.00 | 0.00 | 45 | 1014.4 |
| 20260503191551 | 75 | 251 | 2.6 | 2.6 | 0.00 | 0.00 | 0.00 | 46 | 1014.7 |
| 20260503191048 | 74 | 209 | 0.0 | 0.0 | 0.00 | 0.00 | 0.00 | 46 | 1014.6 |
| 20260503190545 | 75 | 295 | 4.3 | 6.1 | 0.00 | 0.00 | 0.00 | 47 | 1014.7 |
| 20260503190042 | 74 | 242 | 1.7 | 1.7 | 0.00 | 0.00 | 0.00 | 45 | 1014.7 |
| 20260503185539 | 75 | 164 | 0.0 | 0.0 | 0.00 | 0.00 | 0.00 | 43 | 1014.7 |
| 20260503185038 | 75 | 269 | 3.5 | 5.2 | 0.00 | 0.00 | 0.00 | 44 | 1014.8 |
| 20260503184535 | 75 | 262 | 4.3 | 5.2 | 0.00 | 0.00 | 0.00 | 44 | 1014.7 |
| 20260503184032 | 73 | 238 | 1.7 | 1.7 | 0.00 | 0.00 | 0.00 | 45 | 1014.8 |
| 20260503183528 | 74 | 223 | 0.0 | 1.7 | 0.00 | 0.00 | 0.00 | 47 | 1014.9 |
| 20260503183025 | 73 | 249 | 0.9 | 1.7 | 0.00 | 0.00 | 0.00 | 46 | 1014.8 |
| 20260503182524 | 73 | 283 | 4.3 | 5.2 | 0.00 | 0.00 | 0.00 | 45 | 1015.0 |
| 20260503182021 | 73 | 196 | 0.0 | 0.9 | 0.00 | 0.00 | 0.00 | 45 | 1015.0 |
| 20260503181518 | 73 | 263 | 0.0 | 1.7 | 0.00 | 0.00 | 0.00 | 46 | 1014.9 |
| 20260503181014 | 71 | 264 | 2.6 | 2.6 | 0.00 | 0.00 | 0.00 | 49 | 1015.0 |
| 20260503180512 | 71 | 248 | 3.5 | 4.3 | 0.00 | 0.00 | 0.00 | 50 | 1015.1 |
| 20260503180009 | 71 | 197 | 0.9 | 0.9 | 0.00 | 0.00 | 0.00 | 48 | 1014.9 |
| 20260503175506 | 72 | 271 | 2.6 | 4.3 | 0.00 | 0.00 | 0.00 | 48 | 1015.0 |
| 20260503175003 | 71 | 247 | 1.7 | 1.7 | 0.00 | 0.00 | 0.00 | 48 | 1015.0 |
| 20260503174501 | 72 | 291 | 3.5 | 5.2 | 0.00 | 0.00 | 0.00 | 48 | 1015.3 |
| 20260503173956 | 73 | 161 | 0.0 | 0.0 | 0.00 | 0.00 | 0.00 | 43 | 1015.2 |